カタログに戻る

MSG 4 DEB

COOLER COVER

運用中GEO
NORAD 40989·DEBRIS·🇪🇺 EU

打ち上げ Jul 15, 2015 から Guiana Space Centre

Loading…

TLE

最新Source: Space-Track

元期: Sep 3, 2026, 03:26 UTC

1 40989U 15034E   26246.14350231 -.00000143  00000-0  00000-0 0  9991
2 40989   7.3031  77.6391 0025198 297.4923  73.0509  1.01541563 41139

AllMySatでMSG 4 DEBをリアルタイム追跡

Download on the App Store